This demonstration page uses our WeatherBlox Daily Observations layout. Learn more.

Left ArrowRight Arrow

Hourly Observations for October 12, 2018

Temp ( °F °C ) Dew Point ( °F °C ) Humidity (%) Winds ( mph kmh ) Pressure ( in mb ) Visibility ( mi km ) Precip ( " mm )
12:57 am 00:57 Cloudy with Light Rain 42 5.6 36 2.2 79 79 SSW 6 9 30.09 1019 10 16 0.00 0.03
1:57 am 01:57 Cloudy with Light Rain 40 4.4 36 2.2 86 86 S 14 22 30.06 1018 10 16 0.00 0.03
2:51 am 02:51 Cloudy 39 4 36 2 87 87 SSW 5 7 30.12 1020 10 16 0.00 0.03
2:57 am 02:57 Cloudy 39 3.9 35 1.7 86 86 S 5 7 30.07 1018 10 16 0.00 0.03
3:15 am 03:15 Cloudy 39 4 36 2 87 87 Calm 30.09 1019 10 16 0.00 0.00
3:57 am 03:57 Cloudy 39 3.9 36 2.2 89 89 Calm 30.06 1018 10 16 0.00 0.00
4:57 am 04:57 Cloudy 39 3.9 36 2.2 89 89 S 5 7 30.06 1018 10 16 0.00 0.00
5:09 am 05:09 Cloudy 39 4 36 2 87 87 Calm 30.09 1019 10 16 0.00 0.00
5:57 am 05:57 Cloudy with Light Rain 39 3.9 36 2.2 89 89 WSW 3 6 30.06 1018 10 16 0.00 0.03
6:57 am 06:57 Cloudy with Light Rain 39 3.9 36 2.2 89 89 S 5 7 30.04 1017 10 16 0.00 0.03
7:48 am 07:48 Cloudy with Light Rain 39 4 37 3 93 93 SSE 8 13 30.06 1018 10 16 0.00 0.03
7:57 am 07:57 Cloudy with Light Rain 39 3.9 37 2.8 93 93 SSE 7 11 30.00 1016 10 16 0.00 0.03
8:43 am 08:43 Cloudy with Light Rain 39 4 37 3 93 93 SSW 6 9 30.06 1018 10 16 0.00 0.03
8:57 am 08:57 Cloudy with Light Rain 39 3.9 37 2.8 93 93 SSW 5 7 30.04 1017 10 16 0.00 0.03
9:05 am 09:05 Cloudy with Light Rain 39 4 37 3 93 93 SSW 6 9 30.06 1018 6 10 0.00 0.00
9:17 am 09:17 Cloudy with Light Rain 39 4 37 3 93 93 SSW 5 7 30.09 1019 9 14 0.00 0.00
9:31 am 09:31 Cloudy with Light Rain 39 4 37 3 93 93 WSW 7 11 30.09 1019 8 13 0.00 0.00
9:57 am 09:57 Cloudy with Light Rain 40 4.4 38 3.3 93 93 W 6 9 30.04 1017 10 16 0.06 1.52
10:13 am 10:13 Cloudy with Light Rain 39 4 37 3 93 93 WSW 8 13 30.09 1019 10 16 0.00 0.03
10:57 am 10:57 Cloudy 41 5 39 3.9 93 93 W 9 15 30.04 1017 10 16 0.00 0.03
11:05 am 11:05 Cloudy 43 6 39 4 87 87 W 9 15 30.06 1018 10 16 0.00 0.00
11:57 am 11:57 Cloudy 44 6.7 41 5 89 89 WNW 6 9 30.03 1017 10 16 0.00 0.00
12:21 pm 12:21 Cloudy 45 7 39 4 81 81 WNW 9 15 30.03 1017 10 16 0.00 0.00
12:57 pm 12:57 Cloudy 47 8.3 41 5 80 80 W 9 15 30.01 1016 10 16 0.00 0.00
1:57 pm 13:57 Cloudy 48 8.9 40 4.4 74 74 NW 13 20 30.00 1016 10 16 0.00 0.00
2:15 pm 14:15 Mostly Cloudy 52 11 39 4 62 62 NW 15 24 29.97 1015 10 16 0.00 0.00
2:57 pm 14:57 Cloudy 52 11.1 39 3.9 61 61 N 12 19 29.97 1015 10 16 0.00 0.00
3:57 pm 15:57 Sunny 52 11.1 35 1.7 53 53 NNW 10 17 29.94 1014 10 16 0.00 0.00
4:57 pm 16:57 Sunny 53 11.7 31 -0.6 43 43 N 10 17 29.94 1014 10 16 0.00 0.00
5:57 pm 17:57 Sunny 53 11.7 30 -1.1 41 41 NW 5 7 29.95 1014 10 16 0.00 0.00
6:57 pm 18:57 Sunny 50 10 33 0.6 52 52 Calm 29.95 1014 10 16 0.00 0.00
7:57 pm 19:57 Clear 43 6.1 33 0.6 68 68 SSE 6 9 29.96 1015 10 16 0.00 0.00
8:57 pm 20:57 Clear 40 4.4 33 0.6 77 77 SSE 6 9 29.95 1014 10 16 0.00 0.00
9:57 pm 21:57 Clear 36 2.2 32 0 86 86 ESE 3 6 29.95 1014 10 16 0.00 0.00
10:44 pm 22:44 Clear with Light Rain 37 3 32 0 81 81 S 5 7 30.00 1016 3 4 0.00 0.03
10:52 pm 22:52 Clear 37 3 34 1 87 87 S 6 9 30.00 1016 10 16 0.00 0.03
10:57 pm 22:57 Clear 37 2.8 33 0.6 86 86 S 6 9 29.96 1014 10 16 0.00 0.03
11:57 pm 23:57 Clear 36 2.2 32 0 86 86 SSW 9 15 29.94 1014 10 16 0.00 0.00

Powered by AerisWeather